Portada
METAR-TAF:

METAR-TAF

Aeroports :

Pittsburg, Kansas, Estats Units d'Amèrica

latitud: 37-26-58N, longitud: 094-43-52W, altitud: 290 m

Observació

L'informe es va fer fa 33 minuts, a les 22:55 UTC
Vent 12 kt del Sud/Sud-Oest amb ràfegues de 18 kt
Temperatura 27°C
Humitat 70%
Pressió 1009 hPa
Visibilitat: 16.1 km
Cel clar

METAR: KPTS 242255Z AUTO 20012G18KT 10SM CLR 27/21 A2979 RMK AO2 T02740206

Hora: 18:28 (23:28 UTC)


TAF: manca

Observacions i pronòstics meteorològics de més de 4000 aeroports (METAR i TAF).

Les estacions disponibles són els punts grocs i vermells al mapa.

Posi el ratolí al punt desitjat per veure el nom de l'estació.

Feu clic per veure les observacions i els pronòstics meteorològics.

Per canviar el mapa: feu clic els botons verds amb una creu de color negre per apropar; al botó verd amb un guió per allunyar la imatge; o en les fletxes verdes per a mapes adjacents.


METAR-TAF: